TNO1171 SKRG-SVVA

Flight info

Callsign TNO1171
Flight time N/A
Altitude 45000
Route DIPRA1C DIPRA UW26 CUC UW34 LFA UW8 BRM UW14 NOSCA W14A VAL
Aircraft C750/M-SBDE3FGHRWXY/S

Departure

Time N/A
Airport Jose Maria Córdova International Airport (SKRG)

Arrival

Time 2026-05-03 20:35
Airport Arturo Michelena International Airport (SVVA)
Time Latitude Longitude Altitude Speed Heading
2026-05-03 20:15 10.04144 -69.33454 32927 ft 480 kts 81°
2026-05-03 20:15 10.04399 -69.30072 32300 ft 481 kts 89°
2026-05-03 20:15 10.04473 -69.26677 31656 ft 482 kts 89°
2026-05-03 20:15 10.04558 -69.23265 31012 ft 484 kts 89°
2026-05-03 20:16 10.04658 -69.19844 30364 ft 487 kts 89°
2026-05-03 20:16 10.04752 -69.16428 29717 ft 481 kts 89°
2026-05-03 20:16 10.04836 -69.13060 29082 ft 475 kts 89°
2026-05-03 20:16 10.04918 -69.09719 28452 ft 471 kts 89°
2026-05-03 20:17 10.04902 -69.06420 27825 ft 465 kts 94°
2026-05-03 20:17 10.04741 -69.03149 27212 ft 462 kts 93°
2026-05-03 20:17 10.04616 -68.99927 26607 ft 456 kts 93°
2026-05-03 20:17 10.04489 -68.96719 26001 ft 452 kts 93°
2026-05-03 20:18 10.04337 -68.93545 25402 ft 447 kts 94°
2026-05-03 20:18 10.04186 -68.90409 24808 ft 443 kts 93°
2026-05-03 20:18 10.04051 -68.87299 24215 ft 438 kts 93°
2026-05-03 20:18 10.03922 -68.84264 23640 ft 433 kts 93°
2026-05-03 20:19 10.03784 -68.81224 23067 ft 428 kts 93°
2026-05-03 20:19 10.03646 -68.78233 22527 ft 423 kts 93°
2026-05-03 20:19 10.03511 -68.75273 22292 ft 423 kts 93°
2026-05-03 20:19 10.03377 -68.72302 21738 ft 418 kts 93°
2026-05-03 20:20 10.03246 -68.69375 21187 ft 412 kts 93°
2026-05-03 20:20 10.03114 -68.66486 20644 ft 407 kts 94°
2026-05-03 20:20 10.02984 -68.63626 20097 ft 403 kts 94°
2026-05-03 20:20 10.02856 -68.60801 19557 ft 398 kts 94°
2026-05-03 20:21 10.02728 -68.58012 19030 ft 394 kts 94°
2026-05-03 20:21 10.02609 -68.55253 18511 ft 389 kts 94°
2026-05-03 20:21 10.02493 -68.52534 17992 ft 383 kts 94°
2026-05-03 20:21 10.02376 -68.49849 17483 ft 379 kts 94°
2026-05-03 20:22 10.02257 -68.47183 16967 ft 376 kts 94°
2026-05-03 20:22 10.02142 -68.44574 16483 ft 374 kts 94°
2026-05-03 20:22 10.02024 -68.41937 15989 ft 373 kts 94°
2026-05-03 20:22 10.01906 -68.39291 15486 ft 369 kts 94°
2026-05-03 20:23 10.01794 -68.36735 15003 ft 366 kts 94°
2026-05-03 20:23 10.01680 -68.34153 14504 ft 365 kts 94°
2026-05-03 20:23 10.01562 -68.31598 14031 ft 361 kts 94°
2026-05-03 20:23 10.01445 -68.29055 13550 ft 360 kts 94°
2026-05-03 20:24 10.01330 -68.26529 13072 ft 357 kts 94°
2026-05-03 20:24 10.01219 -68.24017 12600 ft 356 kts 94°
2026-05-03 20:24 10.01106 -68.21515 12137 ft 352 kts 94°
2026-05-03 20:24 10.00987 -68.19033 11654 ft 351 kts 94°
2026-05-03 20:25 10.00866 -68.16577 11195 ft 348 kts 94°
2026-05-03 20:25 10.00755 -68.14189 10744 ft 327 kts 94°
2026-05-03 20:25 10.00655 -68.11983 10320 ft 307 kts 94°
2026-05-03 20:25 10.00553 -68.09857 9924 ft 292 kts 94°
2026-05-03 20:26 10.00455 -68.07847 9548 ft 286 kts 95°
2026-05-03 20:26 10.00355 -68.05834 9178 ft 285 kts 94°
2026-05-03 20:26 10.00258 -68.03816 8798 ft 287 kts 94°
2026-05-03 20:26 10.00164 -68.01798 8419 ft 286 kts 94°
2026-05-03 20:27 10.00070 -67.99778 8033 ft 286 kts 94°
2026-05-03 20:27 9.99978 -67.97778 7664 ft 284 kts 94°
2026-05-03 20:27 9.99884 -67.95780 7279 ft 282 kts 94°
2026-05-03 20:27 9.99785 -67.93801 6916 ft 280 kts 94°
2026-05-03 20:28 9.99686 -67.91824 6526 ft 280 kts 95°
2026-05-03 20:28 9.99591 -67.89855 6174 ft 278 kts 94°
2026-05-03 20:28 9.99515 -67.87901 5774 ft 276 kts 92°
2026-05-03 20:28 9.99957 -67.86057 5514 ft 264 kts 66°
2026-05-03 20:29 10.00781 -67.84429 5656 ft 260 kts 64°
2026-05-03 20:29 10.01637 -67.82776 5640 ft 265 kts 65°
2026-05-03 20:29 10.02463 -67.81102 5665 ft 267 kts 66°
2026-05-03 20:29 10.03265 -67.79443 5673 ft 266 kts 66°
2026-05-03 20:30 10.04110 -67.77767 5669 ft 267 kts 65°
2026-05-03 20:30 10.05072 -67.76153 5584 ft 269 kts 51°
2026-05-03 20:30 10.06606 -67.75103 5550 ft 269 kts 24°
2026-05-03 20:30 10.08486 -67.74825 5383 ft 287 kts 359°
2026-05-03 20:31 10.10343 -67.75503 4894 ft 280 kts 327°
2026-05-03 20:31 10.11729 -67.76735 4564 ft 251 kts 318°
2026-05-03 20:31 10.12940 -67.77926 4220 ft 236 kts 318°
2026-05-03 20:31 10.14030 -67.79127 3794 ft 227 kts 304°
2026-05-03 20:32 10.14413 -67.80579 3438 ft 199 kts 275°
2026-05-03 20:32 10.14473 -67.81982 3235 ft 200 kts 274°
2026-05-03 20:32 10.14543 -67.83387 2941 ft 199 kts 275°
2026-05-03 20:32 10.14615 -67.84789 2663 ft 198 kts 274°
2026-05-03 20:33 10.14676 -67.86132 2405 ft 177 kts 272°
2026-05-03 20:33 10.14733 -67.87301 2154 ft 154 kts 272°
2026-05-03 20:33 10.14776 -67.88333 1981 ft 141 kts 271°
2026-05-03 20:33 10.14808 -67.89296 1841 ft 136 kts 272°
2026-05-03 20:34 10.14851 -67.90252 1682 ft 136 kts 272°
2026-05-03 20:34 10.14896 -67.91199 1515 ft 133 kts 273°
2026-05-03 20:34 10.14943 -67.92115 1417 ft 121 kts 272°
2026-05-03 20:34 10.14976 -67.92824 1415 ft 71 kts 273°
2026-05-03 20:35 10.14994 -67.93184 1418 ft 42 kts 273°
2026-05-03 20:35 10.15006 -67.93464 1420 ft 35 kts 273°
2026-05-03 20:35 10.15020 -67.93639 1419 ft 18 kts 291°
2026-05-03 20:35 10.15099 -67.93665 1421 ft 10 kts 22°
2026-05-03 20:36 10.15113 -67.93609 1421 ft 9 kts 95°
2026-05-03 20:36 10.15108 -67.93537 1421 ft 11 kts 94°
2026-05-03 20:36 10.15104 -67.93449 1421 ft 14 kts 93°
2026-05-03 20:36 10.15098 -67.93343 1421 ft 16 kts 93°
2026-05-03 20:37 10.15092 -67.93218 1420 ft 19 kts 93°
2026-05-03 20:37 10.15085 -67.93086 1420 ft 18 kts 93°
2026-05-03 20:37 10.15079 -67.92961 1421 ft 17 kts 93°
2026-05-03 20:37 10.15073 -67.92841 1420 ft 17 kts 92°
2026-05-03 20:38 10.15067 -67.92724 1419 ft 17 kts 93°
2026-05-03 20:38 10.15063 -67.92608 1419 ft 16 kts 93°
2026-05-03 20:38 10.15068 -67.92499 1420 ft 15 kts 74°
2026-05-03 20:38 10.15109 -67.92411 1420 ft 12 kts 66°
2026-05-03 20:39 10.15118 -67.92320 1418 ft 13 kts 94°
2026-05-03 20:39 10.15161 -67.92269 1414 ft 10 kts
2026-05-03 20:39 10.15214 -67.92289 1414 ft 8 kts 304°
2026-05-03 20:39 10.15232 -67.92339 1414 ft 7 kts 290°
2026-05-03 20:40 10.15253 -67.92384 1417 ft 7 kts 312°
2026-05-03 20:40 10.15294 -67.92391 1414 ft 6 kts
2026-05-03 20:40 10.15322 -67.92368 1414 ft 4 kts 86°
2026-05-03 20:40 10.15322 -67.92359 1414 ft 1 kts 90°